Wetbulb
56.72 55.14 55.13 55.84 54.87 54.25 53.33 52.77 51.46 47.13 46.42 47.74 48.05 49.10 49.94 49.77 50.15 50.25 50.48 52.34 55.07 56.17 56.95 57.18 57.26 57.33 57.97 58.17 58.05 57.74 57.16 56.67 55.55 54.77 54.81 55.47 56.16 56.01
56.15 56.16 56.04 56.22 55.52 54.75 53.71 51.30 50.76 52.09 49.07 49.57 48.13 48.25 47.87 50.04 49.25 49.01 49.30 50.07 52.85 55.40 55.92 55.16 55.34 56.09 56.18 56.99 57.20 56.94 56.64 56.64 56.01 54.99 54.64 55.21 55.70 56.01
56.54 56.26 55.84 56.41 55.09 54.18 53.37 51.22 49.62 50.03 50.03 49.57 49.34 49.17 47.10 47.01 47.76 47.28 47.59 47.11 47.40 51.84 54.46 54.39 54.27 54.66 55.37 55.21 55.72 56.24 56.13 56.48 56.19 55.48 54.32 54.43 55.46 55.52
56.17 55.89 55.61 55.84 55.55 55.14 54.02 53.01 51.89 49.36 50.14 50.27 47.93 47.63 48.33 48.37 47.37 46.30 47.38 48.28 46.81 49.38 52.10 52.90 52.94 53.55 54.42 54.57 54.30 54.61 54.73 54.90 55.40 55.64 55.44 54.27 54.91 55.51
56.67 55.86 55.68 54.86 54.71 54.53 53.28 53.76 53.22 53.52 50.67 50.69 49.25 47.16 47.35 46.78 45.36 45.38 45.69 46.06 47.83 48.67 51.53 52.34 53.07 52.87 52.86 53.50 53.64 53.33 52.89 53.12 53.43 53.50 53.75 53.73 54.32 55.19
56.94 56.58 56.34 56.01 55.63 55.43 55.16 54.38 53.57 52.90 49.51 50.25 47.63 46.74 46.87 46.26 46.76 45.61 44.73 44.88 45.52 48.03 49.19 49.66 51.18 51.87 52.55 52.67 52.29 51.34 50.97 51.51 52.80 53.14 52.54 51.74 51.64 52.90
56.38 56.86 56.90 54.92 51.68 54.46 55.73 55.10 54.37 53.42 51.53 50.35 49.23 46.58 45.46 44.55 45.63 45.65 46.73 45.48 45.39 45.07 44.58 45.45 46.70 47.26 48.54 51.35 49.63 49.33 50.26 51.23 51.61 52.47 52.70 52.59 51.15 51.35
54.72 55.20 55.93 50.59 52.03 51.18 51.08 51.50 54.61 54.24 52.57 51.37 50.67 48.28 47.68 47.42 46.08 45.96 45.42 44.30 43.70 45.19 43.62 43.21 44.81 45.32 46.76 46.67 49.42 49.92 50.05 50.92 51.99 52.37 52.06 51.75 50.99 50.50
54.66 54.37 54.24 54.92 52.04 54.75 51.48 50.72 50.86 51.14 52.53 53.31 51.55 49.91 49.08 48.66 47.64 45.53 45.14 44.55 45.02 44.24 42.86 41.71 41.67 42.78 44.53 45.83 48.50 49.05 49.55 49.72 49.96 50.28 50.24 50.29 50.34 50.19
53.99 54.04 54.05 53.80 53.42 53.36 53.51 53.02 52.95 53.56 52.82 52.88 53.13 52.37 52.46 50.99 50.38 49.14 48.15 45.96 43.46 43.82 44.45 41.16 40.67 41.84 41.27 42.20 47.24 48.34 49.07 49.33 49.30 49.45 49.68 49.57 49.16 49.24
53.47 53.62 53.43 53.18 50.50 50.06 52.57 51.98 51.77 51.32 49.59 49.58 49.69 49.79 49.56 49.73 49.01 46.85 43.52 43.31 41.89 42.03 42.56 41.11 39.59 39.00 38.08 38.23 39.68 43.66 46.85 48.85 49.45 49.56 49.49 49.18 48.64 48.48
51.94 52.37 48.76 51.19 49.65 49.19 52.29 51.43 49.58 50.22 48.60 47.97 47.86 47.78 48.05 48.15 47.04 48.37 44.71 41.74 35.86 36.51 40.78 41.05 36.95 37.47 34.23 35.13 36.30 38.55 41.30 45.94 47.91 48.77 49.13 49.00 48.64 47.33
50.40 50.64 51.91 48.77 48.84 48.40 49.22 51.77 50.08 48.98 48.54 48.85 47.84 47.12 44.83 44.81 44.27 45.02 45.28 44.20 34.47 36.00 40.78 38.68 32.03 34.32 33.01 35.45 35.41 36.53 39.85 41.35 43.31 44.59 46.94 47.93 48.18 47.05
48.87 49.93 50.63 47.87 46.88 47.35 47.96 49.65 48.67 47.85 47.44 46.03 43.48 43.59 42.50 42.38 42.50 42.51 44.37 42.58 42.75 42.18 41.78 38.82 33.69 34.97 35.76 33.96 34.54 35.60 36.92 38.17 39.69 40.48 41.03 45.04 45.69 46.71
49.85 48.90 47.66 46.90 46.40 46.51 46.72 47.26 47.15 48.25 46.18 43.37 45.24 42.65 40.39 44.89 40.15 37.96 38.03 37.24 36.61 38.07 39.49 38.00 36.13 35.94 35.43 34.97 34.40 33.55 34.15 34.76 35.99 34.76 36.14 38.33 39.22 40.32
47.14 48.34 47.76 46.90 46.49 47.35 46.77 46.50 48.27 47.98 46.45 45.06 40.58 38.97 37.23 37.10 36.21 35.27 34.36 34.87 34.07 33.18 34.11 37.17 37.86 36.94 34.07 34.32 34.65 33.73 33.30 33.35 32.58 34.12 34.34 34.40 35.54 36.31
47.39 47.66 46.27 45.85 45.60 44.87 44.58 45.54 46.43 45.74 44.26 41.43 38.19 36.49 35.65 36.54 35.01 34.78 34.14 33.65 33.71 33.26 32.57 32.57 34.13 35.38 35.17 34.28 33.56 33.31 33.16 33.09 32.87 32.97 33.52 32.55 33.72 34.81
45.67 45.67 45.55 45.78 45.22 45.17 44.30 43.67 44.41 45.00 44.83 40.70 39.41 37.76 36.92 36.50 35.08 34.03 33.11 34.56 34.47 33.41 32.25 32.43 34.05 33.78 33.31 34.42 36.27 32.66 32.55 32.76 32.49 32.74 32.29 32.85 32.52 34.61
43.56 44.84 44.65 44.90 44.76 44.29 43.80 42.51 41.90 42.93 39.64 39.80 39.22 38.15 37.01 36.23 36.40 35.47 35.77 35.30 33.24 33.22 32.76 32.39 33.14 33.05 32.58 31.12 31.94 35.76 32.74 32.37 32.41 31.94 32.02 32.17 30.86 31.81
42.71 42.62 42.78 43.54 43.52 43.15 42.66 41.35 40.81 37.61 38.87 39.19 38.11 36.75 36.15 35.56 34.47 34.58 34.89 34.78 33.71 32.28 32.04 32.46 32.74 32.70 33.16 32.43 30.54 30.80 34.31 31.83 30.90 28.92 28.74 28.46 31.90 34.36
36.30 36.79 39.62 40.30 41.14 41.30 41.23 40.89 39.77 37.87 37.68 36.14 35.90 35.49 35.16 35.12 34.56 34.85 34.86 35.75 34.78 33.39 32.38 32.11 32.41 35.76 33.20 32.84 29.16 28.53 30.36 33.85 31.92 30.46 28.97 24.76 28.55 28.20
34.37 34.88 34.62 34.94 35.58 36.47 36.26 36.36 35.86 36.13 34.99 35.46 35.06 35.05 35.11 35.34 34.66 34.60 34.73 34.17 33.71 33.32 31.78 32.01 32.39 32.20 30.18 27.68 26.38 27.58 28.44 25.34 30.67 34.65 33.73 30.72 26.78 14.05
32.90 33.21 33.42 33.82 35.13 35.69 35.46 34.93 34.63 34.50 34.86 34.39 34.43 34.61 34.88 34.18 34.90 34.92 34.56 33.61 32.26 31.29 31.02 29.93 30.42 30.92 29.48 26.66 26.65 20.59 18.03 19.12 21.71 21.27 24.16 32.18 32.86 30.71
MSLP
1023.43 1023.64 1024.09 1024.34 1024.66 1024.97 1025.34 1025.60 1026.20 1026.91 1027.11 1026.68 1026.76 1026.08 1026.25 1026.55 1026.73 1027.02 1027.32 1027.31 1027.67 1028.05 1028.22 1028.34 1028.44 1028.53 1028.47 1028.66 1028.91 1029.13 1029.48 1029.71 1029.96 1030.11 1030.15 1030.20 1030.11 1029.93
1022.69 1023.39 1023.68 1023.92 1024.32 1024.71 1024.99 1025.33 1025.50 1025.94 1026.37 1026.13 1026.13 1025.95 1026.09 1026.17 1026.43 1026.66 1026.88 1027.01 1027.13 1027.52 1027.82 1028.09 1028.27 1028.44 1028.50 1028.48 1028.61 1028.88 1029.14 1029.41 1029.68 1029.89 1030.01 1030.08 1030.21 1030.07
1022.42 1022.66 1022.97 1023.53 1023.96 1024.32 1024.66 1024.92 1025.25 1025.51 1025.77 1025.57 1025.64 1025.59 1026.01 1026.10 1026.24 1026.46 1026.63 1026.80 1026.93 1027.13 1027.37 1027.59 1027.85 1028.09 1028.23 1028.28 1028.42 1028.56 1028.77 1029.08 1029.31 1029.62 1029.66 1029.87 1030.12 1030.19
1021.81 1022.18 1022.46 1022.93 1023.30 1023.69 1024.06 1024.35 1024.65 1024.88 1025.32 1025.31 1025.39 1025.59 1025.75 1025.79 1026.02 1026.18 1026.43 1026.48 1026.71 1026.81 1026.92 1027.05 1027.26 1027.45 1027.76 1027.89 1028.11 1028.28 1028.50 1028.75 1029.02 1029.38 1029.49 1029.37 1029.76 1030.26
1021.21 1021.59 1021.83 1022.35 1022.71 1023.03 1023.33 1023.67 1023.94 1024.10 1024.44 1024.85 1024.96 1025.28 1025.56 1025.86 1026.19 1026.27 1026.25 1026.46 1026.35 1026.47 1026.60 1026.71 1026.85 1027.07 1027.28 1027.37 1027.58 1027.71 1027.95 1028.20 1028.52 1028.83 1029.28 1029.26 1029.34 1029.74
1020.62 1020.94 1021.21 1021.60 1021.90 1022.20 1022.52 1022.77 1023.06 1023.44 1023.84 1024.16 1024.57 1024.96 1025.21 1025.59 1025.88 1026.25 1026.35 1026.27 1026.29 1026.29 1026.37 1026.43 1026.47 1026.50 1026.68 1026.85 1027.00 1027.18 1027.41 1027.72 1027.98 1028.35 1028.76 1028.96 1029.25 1029.45
1020.03 1020.27 1020.54 1020.87 1021.04 1021.43 1021.69 1021.93 1022.25 1022.61 1022.97 1023.44 1023.85 1024.35 1024.71 1025.14 1025.21 1025.25 1025.80 1025.90 1025.99 1026.06 1026.32 1026.22 1026.35 1026.25 1026.16 1026.38 1026.57 1026.71 1026.94 1027.19 1027.49 1027.85 1028.05 1028.28 1028.85 1029.17
1019.52 1019.73 1019.97 1020.26 1020.59 1020.76 1020.81 1020.87 1021.26 1021.49 1021.71 1022.13 1022.61 1023.06 1023.35 1023.69 1024.08 1024.56 1025.37 1025.76 1025.97 1025.19 1026.02 1025.84 1026.00 1026.09 1025.73 1025.86 1026.03 1026.26 1026.53 1026.67 1026.85 1027.16 1027.43 1027.52 1027.99 1028.59
1018.93 1019.13 1019.33 1019.54 1019.73 1020.00 1020.09 1020.26 1020.42 1020.59 1020.80 1021.22 1021.41 1021.88 1022.24 1022.45 1022.95 1023.79 1024.35 1024.89 1024.97 1025.48 1025.88 1026.10 1026.05 1025.98 1025.67 1025.57 1025.74 1025.90 1026.05 1026.23 1026.34 1026.53 1026.81 1027.16 1027.45 1027.82
1018.25 1018.42 1018.71 1018.92 1019.01 1019.27 1019.49 1019.70 1019.89 1019.98 1020.13 1020.41 1020.59 1020.93 1021.27 1021.83 1022.14 1022.67 1023.32 1024.17 1025.01 1025.03 1025.34 1026.06 1025.77 1025.86 1025.63 1025.48 1025.51 1025.60 1025.75 1025.77 1025.71 1026.14 1026.40 1026.85 1027.12 1027.34
1017.56 1017.82 1018.04 1018.22 1018.34 1018.68 1018.89 1019.02 1019.21 1019.37 1019.53 1019.84 1020.07 1020.38 1020.80 1021.21 1021.76 1022.70 1023.47 1024.27 1024.83 1024.80 1024.85 1025.54 1025.61 1025.62 1025.84 1025.86 1025.72 1025.78 1025.93 1025.39 1025.30 1025.68 1025.92 1026.58 1026.79 1026.90
1016.93 1017.12 1017.43 1017.61 1017.85 1018.13 1018.28 1018.41 1018.75 1018.84 1019.33 1019.68 1019.99 1020.41 1020.59 1020.92 1021.30 1021.53 1022.44 1023.40 1024.09 1024.66 1024.15 1024.94 1025.30 1025.70 1026.30 1026.01 1025.78 1025.96 1025.87 1025.90 1025.52 1025.62 1026.06 1026.55 1026.46 1026.60
1016.42 1016.47 1016.55 1016.76 1017.05 1017.39 1017.61 1017.81 1017.95 1018.25 1018.66 1019.14 1019.53 1020.06 1020.52 1021.00 1021.45 1021.58 1021.97 1022.37 1023.04 1023.36 1023.51 1024.12 1025.28 1025.64 1025.80 1026.03 1026.00 1026.16 1025.99 1025.88 1025.89 1026.35 1026.41 1026.32 1026.28 1026.46
1015.67 1015.76 1015.89 1016.19 1016.38 1016.65 1017.01 1017.29 1017.58 1017.87 1018.25 1018.82 1019.44 1019.92 1020.23 1020.73 1020.99 1021.29 1021.77 1022.22 1022.47 1022.60 1023.06 1023.77 1024.66 1024.99 1025.35 1026.00 1026.36 1026.42 1026.34 1026.21 1026.35 1026.52 1026.59 1026.44 1026.70 1026.75
1014.91 1014.90 1015.13 1015.55 1015.83 1016.02 1016.18 1016.53 1017.02 1017.49 1017.99 1018.56 1019.03 1019.44 1019.54 1019.74 1020.50 1021.53 1022.13 1022.64 1022.98 1023.13 1023.26 1023.61 1024.07 1024.47 1024.82 1025.33 1026.00 1026.39 1026.47 1026.84 1026.78 1026.82 1027.06 1027.07 1027.11 1027.16
1014.32 1014.43 1014.59 1014.84 1015.19 1015.46 1015.74 1015.96 1016.39 1016.69 1017.12 1017.63 1018.32 1018.82 1019.46 1020.04 1020.48 1020.98 1022.02 1022.65 1023.36 1024.07 1024.17 1023.90 1023.84 1023.93 1024.68 1025.10 1025.38 1026.20 1026.58 1027.16 1027.29 1027.23 1027.33 1027.52 1027.57 1027.76
1013.70 1013.84 1014.02 1014.37 1014.68 1015.03 1015.24 1015.43 1015.73 1016.07 1016.61 1017.16 1017.97 1018.75 1019.35 1019.74 1020.21 1020.69 1021.25 1022.20 1022.81 1023.72 1024.38 1024.52 1024.34 1024.20 1024.59 1025.12 1025.66 1026.24 1026.66 1027.06 1027.37 1027.49 1027.58 1027.97 1028.23 1028.33
1013.38 1013.20 1013.30 1013.63 1013.87 1014.25 1014.66 1014.97 1015.18 1015.54 1015.85 1016.54 1017.28 1018.10 1018.70 1019.32 1019.90 1020.49 1020.81 1021.38 1022.11 1022.98 1023.65 1024.21 1024.28 1024.47 1025.03 1025.82 1025.74 1026.36 1026.72 1027.21 1027.60 1027.59 1027.91 1028.24 1028.58 1028.62
1012.89 1012.71 1012.71 1012.85 1012.98 1013.22 1013.64 1014.01 1014.32 1014.56 1015.17 1015.81 1016.52 1017.25 1017.94 1018.74 1019.32 1020.02 1020.39 1020.98 1021.73 1022.43 1023.14 1023.69 1023.88 1024.21 1025.24 1026.04 1026.84 1026.72 1026.96 1027.42 1027.68 1028.16 1028.19 1028.36 1028.74 1028.84
1012.36 1012.17 1012.12 1012.19 1012.31 1012.46 1012.70 1013.04 1013.66 1014.17 1014.66 1015.14 1015.85 1016.54 1017.16 1017.93 1018.71 1019.17 1019.70 1020.29 1021.08 1022.03 1022.84 1023.36 1023.65 1023.78 1024.32 1025.16 1026.49 1027.57 1027.23 1027.54 1027.82 1028.45 1028.68 1028.77 1028.46 1028.55
1012.23 1012.04 1011.83 1011.79 1011.82 1011.86 1011.89 1012.16 1012.58 1013.17 1013.82 1014.38 1015.10 1015.72 1016.38 1017.12 1018.00 1018.39 1019.10 1019.73 1020.79 1021.55 1022.35 1023.18 1023.55 1023.72 1024.18 1024.97 1026.42 1027.69 1027.85 1027.65 1027.87 1028.19 1028.45 1028.55 1028.48 1028.94
1012.38 1012.16 1011.89 1011.72 1011.63 1011.67 1011.77 1011.89 1012.16 1012.51 1013.13 1013.62 1014.32 1015.09 1015.53 1016.24 1016.99 1017.91 1018.53 1019.43 1020.49 1021.38 1022.41 1023.27 1023.84 1024.11 1024.51 1025.28 1026.59 1027.53 1028.10 1028.09 1027.86 1027.65 1027.68 1028.04 1028.46 1029.05
1012.74 1012.42 1011.87 1011.51 1011.41 1011.44 1011.56 1011.61 1011.77 1012.02 1012.48 1012.95 1013.84 1014.38 1014.97 1015.63 1016.62 1017.55 1018.35 1019.19 1020.21 1021.32 1022.30 1023.45 1024.09 1024.50 1025.11 1025.99 1026.85 1027.90 1028.58 1028.73 1028.40 1028.45 1028.21 1028.07 1028.33 1028.61
Wind_Speed
8 6 5 5 4 4 3 3 4 3 4 4 4 4 4 4 6 6 6 9 11 11 10 10 8 5 5 10 9 10 9 7 5 4 5 6 7 4
5 8 7 3 5 4 4 3 3 5 5 5 6 3 2 3 5 6 7 10 11 12 12 10 10 7 5 8 11 12 12 10 9 7 7 6 7 6
7 8 9 8 5 4 4 4 4 3 7 2 3 3 3 4 3 4 5 5 5 11 12 11 11 10 9 6 7 11 13 12 12 10 8 8 7 5
9 8 9 6 9 7 7 9 7 5 5 10 4 4 6 3 3 4 4 4 4 7 11 13 12 12 12 10 8 9 11 11 11 11 10 9 9 9
10 10 11 9 9 8 8 8 7 6 7 7 6 1 2 1 1 1 2 4 3 6 10 12 12 12 12 12 12 10 12 12 12 11 11 9 8 9
10 11 11 10 12 10 9 11 9 8 6 7 3 3 2 2 2 3 4 3 3 2 5 6 8 11 13 13 13 12 11 12 12 12 12 10 9 10
8 9 10 11 12 12 8 10 10 9 7 8 6 3 4 3 5 4 4 2 2 4 2 4 4 4 5 10 8 11 12 12 11 12 12 12 11 11
9 9 9 11 13 16 16 15 13 12 11 9 8 9 10 8 4 4 3 3 2 2 4 3 4 5 4 4 8 10 11 12 13 14 13 13 13 13
10 9 8 8 10 10 12 13 12 15 15 11 10 10 9 11 7 4 5 4 4 2 3 3 2 4 3 4 9 11 10 11 11 11 12 13 14 13
10 9 10 9 9 10 9 8 10 10 12 9 10 9 8 7 7 6 7 4 2 2 4 3 2 3 1 0 2 6 9 9 8 9 9 11 12 13
9 10 10 9 10 14 9 9 9 8 7 12 8 8 9 9 10 6 4 4 4 4 4 3 3 1 2 1 2 4 3 3 6 6 7 9 9 9
8 9 13 11 11 15 11 8 8 8 7 5 4 4 8 10 16 9 6 4 3 0 5 6 3 4 1 0 2 3 3 3 4 3 4 6 5 3
6 6 8 15 14 15 15 9 10 6 8 7 6 5 4 5 4 4 6 4 4 3 4 5 3 1 2 2 2 2 1 2 3 3 4 3 3 4
9 8 9 12 14 15 12 13 10 8 4 5 4 4 5 5 4 4 5 4 2 3 6 4 3 4 3 2 2 0 2 3 2 2 2 5 7 5
8 10 12 12 14 12 15 14 12 7 6 4 7 5 4 5 7 5 6 6 6 5 3 2 3 3 2 2 3 2 2 3 3 2 3 3 2 3
11 9 9 9 10 9 6 9 7 8 8 7 5 3 4 3 3 3 3 3 3 2 5 3 5 4 3 2 2 3 2 3 0 2 2 2 4 4
6 5 5 5 6 5 4 5 6 6 6 4 4 5 4 4 3 3 3 3 3 4 3 2 4 7 6 3 4 2 3 2 1 2 3 2 3 3
5 5 7 8 8 8 7 7 6 9 7 6 6 6 6 6 5 3 2 4 5 5 4 3 5 4 3 7 10 2 2 3 2 3 2 3 2 3
7 7 7 8 9 9 9 8 8 8 5 7 7 8 6 6 10 7 6 5 4 5 4 2 3 3 3 3 1 12 3 2 2 2 2 2 2 1
6 7 8 8 8 9 9 9 8 6 7 8 8 8 8 9 7 8 7 6 8 4 5 3 2 3 4 6 5 1 5 3 3 2 1 0 0 4
3 4 5 6 7 8 8 8 9 9 9 9 8 8 8 9 7 7 8 13 12 6 8 5 2 9 7 6 5 3 1 7 5 4 3 2 2 1
4 5 4 4 4 5 5 6 6 8 8 8 8 8 9 9 10 9 9 11 9 8 7 6 5 4 3 4 6 5 3 2 1 5 5 5 3 2
5 5 3 4 4 5 6 6 7 7 8 8 8 8 9 10 9 9 10 10 10 10 10 8 4 4 4 4 7 4 2 0 1 2 3 9 10 10
Wind_Direction
205 186 192 194 180 181 169 171 187 207 243 260 237 230 213 187 207 194 210 204 214 227 238 256 265 274 238 200 213 190 202 191 217 262 282 313 316 279
190 196 200 185 193 196 189 200 194 219 251 202 223 218 222 210 204 200 206 210 209 219 228 236 252 245 260 232 208 190 195 200 211 232 250 265 290 258
200 197 196 203 193 196 199 198 199 176 236 252 236 202 225 220 215 210 215 210 218 221 225 224 231 232 236 243 224 203 203 204 207 221 228 242 254 242
201 196 213 194 208 198 199 213 213 200 216 253 223 213 215 201 233 197 217 214 213 217 222 225 227 224 224 226 227 215 214 214 210 216 221 223 239 248
206 203 214 200 214 207 202 207 215 217 212 228 240 143 187 120 214 265 208 228 224 228 232 230 229 231 225 224 222 217 215 215 212 215 221 219 221 237
208 207 214 209 216 211 210 214 212 214 200 214 189 172 153 158 155 214 253 219 244 229 236 230 221 224 229 229 223 221 213 215 215 214 216 218 226 230
211 211 215 216 215 218 211 219 217 216 203 209 200 161 171 176 198 177 217 135 264 204 235 236 220 220 223 229 235 223 221 215 213 219 215 216 220 226
223 219 219 214 227 229 226 225 212 216 215 205 203 207 203 206 164 165 152 146 258 180 192 270 176 236 221 206 219 218 217 214 217 225 224 215 213 219
226 225 228 229 217 228 226 221 221 223 220 203 209 204 207 205 156 154 170 180 182 176 128 278 178 250 220 221 222 222 216 210 210 213 216 219 217 215
222 218 218 219 213 211 219 218 230 224 223 216 208 204 207 172 177 186 194 149 35 145 156 232 168 243 325 71 257 249 238 221 214 220 226 228 219 215
221 222 218 219 206 204 207 219 233 223 206 199 202 206 192 178 160 122 155 128 216 222 172 184 205 175 5 26 32 17 306 207 195 207 216 229 224 220
217 219 214 213 205 201 214 205 207 210 188 183 187 208 187 184 172 184 153 170 150 324 205 182 150 158 217 253 84 23 10 15 85 135 187 210 200 165
226 222 221 218 212 204 208 208 210 178 197 189 190 188 166 165 182 186 177 161 151 216 180 121 153 165 57 115 80 50 68 43 51 51 73 92 141 152
229 236 242 222 213 207 203 219 202 178 164 179 169 192 178 179 200 171 153 116 89 182 161 128 157 158 140 104 145 68 42 62 106 101 68 69 63 56
225 223 225 219 214 219 210 209 196 191 177 171 203 194 192 174 119 98 78 86 71 46 82 134 154 138 98 123 145 136 111 22 18 84 54 62 69 37
234 231 223 205 197 210 202 206 196 190 184 190 190 147 124 133 128 133 122 142 99 51 17 47 134 124 131 87 117 130 103 158 82 69 90 59 54 58
219 215 196 197 203 197 196 197 189 183 181 163 145 156 161 159 150 146 122 133 132 154 149 20 64 79 65 111 96 81 143 96 48 67 60 74 49 57
241 217 210 210 207 203 203 199 189 197 194 169 159 167 173 175 161 154 125 157 149 160 143 158 148 103 59 43 52 101 63 92 67 74 74 90 68 22
239 232 220 213 214 209 201 196 197 192 161 173 175 177 170 173 165 178 172 160 129 133 127 123 146 108 115 103 28 32 107 81 107 67 58 85 132 312
228 225 221 214 213 208 202 196 197 169 177 178 176 173 171 170 168 167 163 157 142 132 125 118 135 142 146 153 134 41 53 97 86 96 113 290 284 60
263 259 241 217 215 212 205 199 190 184 182 170 170 168 164 159 163 155 151 143 142 137 140 132 125 124 110 100 96 114 68 108 144 139 147 118 86 32
270 249 227 217 206 200 193 180 174 168 163 168 162 165 157 159 150 151 144 143 143 134 118 116 116 101 76 102 121 127 132 331 82 135 120 130 127 156
300 271 235 205 193 187 178 172 169 162 164 148 156 152 152 144 141 141 137 132 131 129 130 125 111 83 89 111 123 114 112 323 16 40 23 44 74 55